Year,Month,Day,Hour,Minute,Value (Times are PST for windspeed in km/hr)
2010,05,03,00,00,17.40
2010,05,03,00,01,15.50
2010,05,03,00,02,16.20
2010,05,03,00,03,13.70
2010,05,03,00,04,13.40
2010,05,03,00,05,10.50
2010,05,03,00,06,9.00
2010,05,03,00,07,10.10
2010,05,03,00,08,12.90
2010,05,03,00,09,17.40
2010,05,03,00,10,12.70
2010,05,03,00,11,15.90
2010,05,03,00,12,17.40
2010,05,03,00,13,9.80
2010,05,03,00,14,12.60
2010,05,03,00,15,11.40
2010,05,03,00,16,12.10
2010,05,03,00,17,14.30
2010,05,03,00,18,12.90
2010,05,03,00,19,10.30
2010,05,03,00,20,13.00
2010,05,03,00,21,15.00
2010,05,03,00,22,13.40
2010,05,03,00,23,13.40
2010,05,03,00,24,9.40
2010,05,03,00,25,13.30
2010,05,03,00,26,10.30
2010,05,03,00,27,8.60
2010,05,03,00,28,10.20
2010,05,03,00,29,10.00
2010,05,03,00,30,11.00
2010,05,03,00,31,8.20
2010,05,03,00,32,9.20
2010,05,03,00,33,8.10
2010,05,03,00,34,9.70
2010,05,03,00,35,10.70
2010,05,03,00,36,13.00
2010,05,03,00,37,10.90
2010,05,03,00,38,8.40
2010,05,03,00,39,13.30
2010,05,03,00,40,8.50
2010,05,03,00,41,8.70
2010,05,03,00,42,12.10
2010,05,03,00,43,15.00
2010,05,03,00,44,13.90
2010,05,03,00,45,12.50
2010,05,03,00,46,13.40
2010,05,03,00,47,13.40
2010,05,03,00,48,11.30
2010,05,03,00,49,13.70
2010,05,03,00,50,8.60
2010,05,03,00,51,9.30
2010,05,03,00,52,11.00
2010,05,03,00,53,10.00
2010,05,03,00,54,9.30
2010,05,03,00,55,7.30
2010,05,03,00,56,14.90
2010,05,03,00,57,12.00
2010,05,03,00,58,12.10
2010,05,03,00,59,11.40
2010,05,03,01,00,11.90
2010,05,03,01,01,14.00
2010,05,03,01,02,10.80
2010,05,03,01,03,9.60
2010,05,03,01,04,11.20
2010,05,03,01,05,8.60
2010,05,03,01,06,10.50
2010,05,03,01,07,11.90
2010,05,03,01,08,14.70
2010,05,03,01,09,12.70
2010,05,03,01,10,10.80
2010,05,03,01,11,14.20
2010,05,03,01,12,12.60
2010,05,03,01,13,6.60
2010,05,03,01,14,9.60
2010,05,03,01,15,9.60
2010,05,03,01,16,11.00
2010,05,03,01,17,9.70
2010,05,03,01,18,10.90
2010,05,03,01,19,13.60
2010,05,03,01,20,15.20
2010,05,03,01,21,12.60
2010,05,03,01,22,9.60
2010,05,03,01,23,7.80
2010,05,03,01,24,10.30
2010,05,03,01,25,8.50
2010,05,03,01,26,13.60
2010,05,03,01,27,13.40
2010,05,03,01,28,12.00
2010,05,03,01,29,10.70
2010,05,03,01,30,11.30
2010,05,03,01,31,14.90
2010,05,03,01,32,16.00
2010,05,03,01,33,12.70
2010,05,03,01,34,13.50
2010,05,03,01,35,11.10
2010,05,03,01,36,12.40
2010,05,03,01,37,16.70
2010,05,03,01,38,12.70
2010,05,03,01,39,11.70
2010,05,03,01,40,14.10
2010,05,03,01,41,16.20
2010,05,03,01,42,15.00
2010,05,03,01,43,13.10
2010,05,03,01,44,9.60
2010,05,03,01,45,9.90
2010,05,03,01,46,10.40
2010,05,03,01,47,19.20
2010,05,03,01,48,11.70
2010,05,03,01,49,9.20
2010,05,03,01,50,19.80
2010,05,03,01,51,14.80
2010,05,03,01,52,13.30
2010,05,03,01,53,12.10
2010,05,03,01,54,16.70
2010,05,03,01,55,11.60
2010,05,03,01,56,20.30
2010,05,03,01,57,19.70
2010,05,03,01,58,15.80
2010,05,03,01,59,18.10
2010,05,03,02,00,20.60
2010,05,03,02,01,19.00
2010,05,03,02,02,23.60
2010,05,03,02,03,23.70
2010,05,03,02,04,15.50
2010,05,03,02,05,27.50
2010,05,03,02,06,30.30
2010,05,03,02,07,17.80
2010,05,03,02,08,18.70
2010,05,03,02,09,17.90
2010,05,03,02,10,21.70
2010,05,03,02,11,18.40
2010,05,03,02,12,26.30
2010,05,03,02,13,26.90
2010,05,03,02,14,27.20
2010,05,03,02,15,16.90
2010,05,03,02,16,18.70
2010,05,03,02,17,34.60
2010,05,03,02,18,23.70
2010,05,03,02,19,19.40
2010,05,03,02,20,19.40
2010,05,03,02,21,22.60
2010,05,03,02,22,16.20
2010,05,03,02,23,22.20
2010,05,03,02,24,12.90
2010,05,03,02,25,15.10
2010,05,03,02,26,20.30
2010,05,03,02,27,18.40
2010,05,03,02,28,15.40
2010,05,03,02,29,16.30
2010,05,03,02,30,17.70
2010,05,03,02,31,18.10
2010,05,03,02,32,13.10
2010,05,03,02,33,25.90
2010,05,03,02,34,26.80
2010,05,03,02,35,23.90
2010,05,03,02,36,26.20
2010,05,03,02,37,24.60
2010,05,03,02,38,29.00
2010,05,03,02,39,20.40
2010,05,03,02,40,20.30
2010,05,03,02,41,33.60
2010,05,03,02,42,28.20
2010,05,03,02,43,25.50
2010,05,03,02,44,30.70
2010,05,03,02,45,36.30
2010,05,03,02,46,21.40
2010,05,03,02,47,21.60
2010,05,03,02,48,27.30
2010,05,03,02,49,28.50
2010,05,03,02,50,31.80
2010,05,03,02,51,27.80
2010,05,03,02,52,25.90
2010,05,03,02,53,24.90
2010,05,03,02,54,26.50
2010,05,03,02,55,20.90
2010,05,03,02,56,26.80
2010,05,03,02,57,31.10
2010,05,03,02,58,20.40
2010,05,03,02,59,20.80
2010,05,03,03,00,37.50
2010,05,03,03,01,38.00
2010,05,03,03,02,32.10
2010,05,03,03,03,33.60
2010,05,03,03,04,25.10
2010,05,03,03,05,26.30
2010,05,03,03,06,21.80
2010,05,03,03,07,19.40
2010,05,03,03,08,25.30
2010,05,03,03,09,27.80
2010,05,03,03,10,14.40
2010,05,03,03,11,14.60
2010,05,03,03,12,20.90
2010,05,03,03,13,17.80
2010,05,03,03,14,17.60
2010,05,03,03,15,24.20
2010,05,03,03,16,21.80
2010,05,03,03,17,24.60
2010,05,03,03,18,28.80
2010,05,03,03,19,35.20
2010,05,03,03,20,33.70
2010,05,03,03,21,20.40
2010,05,03,03,22,25.30
2010,05,03,03,23,23.70
2010,05,03,03,24,25.90
2010,05,03,03,25,18.60
2010,05,03,03,26,19.40
2010,05,03,03,27,21.40
2010,05,03,03,28,25.80
2010,05,03,03,29,24.40
2010,05,03,03,30,20.70
2010,05,03,03,31,17.90
2010,05,03,03,32,13.00
2010,05,03,03,33,26.10
2010,05,03,03,34,21.30
2010,05,03,03,35,20.90
2010,05,03,03,36,16.30
2010,05,03,03,37,15.20
2010,05,03,03,38,20.20
2010,05,03,03,39,29.20
2010,05,03,03,40,30.20
2010,05,03,03,41,24.10
2010,05,03,03,42,27.90
2010,05,03,03,43,30.70
2010,05,03,03,44,31.40
2010,05,03,03,45,36.80
2010,05,03,03,46,26.10
2010,05,03,03,47,37.30
2010,05,03,03,48,28.70
2010,05,03,03,49,38.50
2010,05,03,03,50,26.70
2010,05,03,03,51,21.60
2010,05,03,03,52,21.10
2010,05,03,03,53,24.80
2010,05,03,03,54,19.30
2010,05,03,03,55,23.50
2010,05,03,03,56,24.10
2010,05,03,03,57,17.10
2010,05,03,03,58,22.90
2010,05,03,03,59,26.60
2010,05,03,04,00,26.50
2010,05,03,04,01,37.70
2010,05,03,04,02,47.30
2010,05,03,04,03,47.20
2010,05,03,04,04,37.90
2010,05,03,04,05,40.80
2010,05,03,04,06,34.30
2010,05,03,04,07,37.10
2010,05,03,04,08,31.10
2010,05,03,04,09,27.20
2010,05,03,04,10,26.50
2010,05,03,04,11,34.00
2010,05,03,04,12,25.70
2010,05,03,04,13,31.30
2010,05,03,04,14,26.60
2010,05,03,04,15,20.40
2010,05,03,04,16,30.30
2010,05,03,04,17,27.60
2010,05,03,04,18,34.30
2010,05,03,04,19,34.70
2010,05,03,04,20,28.00
2010,05,03,04,21,26.20
2010,05,03,04,22,19.60
2010,05,03,04,23,27.00
2010,05,03,04,24,33.70
2010,05,03,04,25,24.30
2010,05,03,04,26,18.40
2010,05,03,04,27,12.60
2010,05,03,04,28,20.80
2010,05,03,04,29,23.10
2010,05,03,04,30,29.60
2010,05,03,04,31,26.80
2010,05,03,04,32,22.00
2010,05,03,04,33,18.20
2010,05,03,04,34,12.00
2010,05,03,04,35,24.90
2010,05,03,04,36,27.50
2010,05,03,04,37,30.10
2010,05,03,04,38,27.80
2010,05,03,04,39,26.80
2010,05,03,04,40,20.80
2010,05,03,04,41,23.80
2010,05,03,04,42,24.90
2010,05,03,04,43,18.90
2010,05,03,04,44,18.60
2010,05,03,04,45,25.20
2010,05,03,04,46,27.40
2010,05,03,04,47,26.00
2010,05,03,04,48,23.60
2010,05,03,04,49,24.50
2010,05,03,04,50,23.50
2010,05,03,04,51,29.60
2010,05,03,04,52,29.30
2010,05,03,04,53,28.40
2010,05,03,04,54,20.40
2010,05,03,04,55,25.20
2010,05,03,04,56,17.70
2010,05,03,04,57,27.70
2010,05,03,04,58,30.20
2010,05,03,04,59,13.20
2010,05,03,05,00,20.60
2010,05,03,05,01,24.00
2010,05,03,05,02,23.10
2010,05,03,05,03,19.60
2010,05,03,05,04,17.00
2010,05,03,05,05,14.90
2010,05,03,05,06,16.30
2010,05,03,05,07,21.30
2010,05,03,05,08,25.30
2010,05,03,05,09,27.50
2010,05,03,05,10,28.50
2010,05,03,05,11,37.70
2010,05,03,05,12,26.40
2010,05,03,05,13,33.90
2010,05,03,05,14,23.50
2010,05,03,05,15,22.50
2010,05,03,05,16,25.10
2010,05,03,05,17,19.00
2010,05,03,05,18,24.40
2010,05,03,05,19,24.60
2010,05,03,05,20,28.00
2010,05,03,05,21,36.90
2010,05,03,05,22,21.90
2010,05,03,05,23,22.30
2010,05,03,05,24,20.60
2010,05,03,05,25,20.50
2010,05,03,05,26,23.00
2010,05,03,05,27,25.80
2010,05,03,05,28,28.60
2010,05,03,05,29,36.00
2010,05,03,05,30,34.30
2010,05,03,05,31,25.80
2010,05,03,05,32,31.30
2010,05,03,05,33,23.10
2010,05,03,05,34,29.60
2010,05,03,05,35,24.80
2010,05,03,05,36,19.20
2010,05,03,05,37,18.20
2010,05,03,05,38,15.50
2010,05,03,05,39,22.70
2010,05,03,05,40,21.60
2010,05,03,05,41,20.70
2010,05,03,05,42,20.70
2010,05,03,05,43,17.50
2010,05,03,05,44,32.90
2010,05,03,05,45,27.40
2010,05,03,05,46,27.90
2010,05,03,05,47,24.60
2010,05,03,05,48,21.10
2010,05,03,05,49,25.10
2010,05,03,05,50,22.00
2010,05,03,05,51,16.30
2010,05,03,05,52,14.60
2010,05,03,05,53,16.80
2010,05,03,05,54,20.80
2010,05,03,05,55,18.90
2010,05,03,05,56,18.70
2010,05,03,05,57,24.80
2010,05,03,05,58,31.50
2010,05,03,05,59,27.00
2010,05,03,06,00,19.60
2010,05,03,06,01,25.90
2010,05,03,06,02,22.10
2010,05,03,06,03,19.80
2010,05,03,06,04,23.80
2010,05,03,06,05,27.30
2010,05,03,06,06,26.60
2010,05,03,06,07,28.20
2010,05,03,06,08,23.70
2010,05,03,06,09,24.30
2010,05,03,06,10,25.40
2010,05,03,06,11,26.90
2010,05,03,06,12,29.40
2010,05,03,06,13,24.10
2010,05,03,06,14,22.40
2010,05,03,06,15,24.80
2010,05,03,06,16,30.20
2010,05,03,06,17,26.40
2010,05,03,06,18,20.90
2010,05,03,06,19,20.80
2010,05,03,06,20,29.00
2010,05,03,06,21,27.00
2010,05,03,06,22,28.10
2010,05,03,06,23,25.00
2010,05,03,06,24,26.50
2010,05,03,06,25,18.50
2010,05,03,06,26,18.30
2010,05,03,06,27,22.90
2010,05,03,06,28,19.60
2010,05,03,06,29,17.80
2010,05,03,06,30,24.50
2010,05,03,06,31,28.50
2010,05,03,06,32,25.70
2010,05,03,06,33,25.90
2010,05,03,06,34,29.90
2010,05,03,06,35,25.70
2010,05,03,06,36,20.90
2010,05,03,06,37,17.40
2010,05,03,06,38,24.10
2010,05,03,06,39,26.50
2010,05,03,06,40,34.60
2010,05,03,06,41,35.20
2010,05,03,06,42,32.80
2010,05,03,06,43,29.10
2010,05,03,06,44,27.30
2010,05,03,06,45,26.40
2010,05,03,06,46,22.50
2010,05,03,06,47,30.00
2010,05,03,06,48,27.70
2010,05,03,06,49,27.70
2010,05,03,06,50,33.10
2010,05,03,06,51,24.90
2010,05,03,06,52,31.90
2010,05,03,06,53,34.00
2010,05,03,06,54,31.80
2010,05,03,06,55,22.50
2010,05,03,06,56,24.50
2010,05,03,06,57,24.10
2010,05,03,06,58,31.90
2010,05,03,06,59,33.40
2010,05,03,07,00,20.10
2010,05,03,07,01,24.20
2010,05,03,07,02,34.80
2010,05,03,07,03,32.50
2010,05,03,07,04,33.50
2010,05,03,07,05,23.80
2010,05,03,07,06,12.60
2010,05,03,07,07,20.70
2010,05,03,07,08,24.70
2010,05,03,07,09,14.60
2010,05,03,07,10,17.80
2010,05,03,07,11,23.10
2010,05,03,07,12,16.10
2010,05,03,07,13,14.70
2010,05,03,07,14,16.80
2010,05,03,07,15,19.90
2010,05,03,07,16,16.50
2010,05,03,07,17,26.20
2010,05,03,07,18,19.60
2010,05,03,07,19,18.20
2010,05,03,07,20,22.40
2010,05,03,07,21,19.50
2010,05,03,07,22,23.40
2010,05,03,07,23,24.00
2010,05,03,07,24,22.00
2010,05,03,07,25,17.20
2010,05,03,07,26,17.70
2010,05,03,07,27,30.70
2010,05,03,07,28,25.40
2010,05,03,07,29,25.60
2010,05,03,07,30,28.90
2010,05,03,07,31,29.80
2010,05,03,07,32,28.30
2010,05,03,07,33,33.70
2010,05,03,07,34,22.30
2010,05,03,07,35,21.60
2010,05,03,07,36,21.70
2010,05,03,07,37,18.50
2010,05,03,07,38,18.50
2010,05,03,07,39,29.90
2010,05,03,07,40,25.90
2010,05,03,07,41,30.10
2010,05,03,07,42,24.60
2010,05,03,07,43,22.90
2010,05,03,07,44,21.90
2010,05,03,07,45,25.70
2010,05,03,07,46,23.90
2010,05,03,07,47,22.90
2010,05,03,07,48,19.00
2010,05,03,07,49,32.60
2010,05,03,07,50,28.50
2010,05,03,07,51,35.50
2010,05,03,07,52,29.90
2010,05,03,07,53,31.70
2010,05,03,07,54,29.30
2010,05,03,07,55,32.00
2010,05,03,07,56,31.00
2010,05,03,07,57,22.40
2010,05,03,07,58,24.70
2010,05,03,07,59,28.20
2010,05,03,08,00,18.30
2010,05,03,08,01,25.10
2010,05,03,08,02,26.30
2010,05,03,08,03,18.20
2010,05,03,08,04,28.60
2010,05,03,08,05,22.10
2010,05,03,08,06,27.60
2010,05,03,08,07,25.50
2010,05,03,08,08,35.20
2010,05,03,08,09,22.90
2010,05,03,08,10,24.20
2010,05,03,08,11,29.40
2010,05,03,08,12,26.40
2010,05,03,08,13,27.30
2010,05,03,08,14,26.10
2010,05,03,08,15,24.20
2010,05,03,08,16,23.70
2010,05,03,08,17,22.20
2010,05,03,08,18,19.10
2010,05,03,08,19,30.30
2010,05,03,08,20,22.80
2010,05,03,08,21,19.60
2010,05,03,08,22,21.50
2010,05,03,08,23,29.70
2010,05,03,08,24,36.50
2010,05,03,08,25,33.40
2010,05,03,08,26,24.80
2010,05,03,08,27,27.40
2010,05,03,08,28,28.30
2010,05,03,08,29,27.40
2010,05,03,08,30,28.40
2010,05,03,08,31,34.60
2010,05,03,08,32,35.90
2010,05,03,08,33,32.70
2010,05,03,08,34,32.40
2010,05,03,08,35,40.00
2010,05,03,08,36,32.10
2010,05,03,08,37,23.00
2010,05,03,08,38,16.30
2010,05,03,08,39,28.90
2010,05,03,08,40,29.50
2010,05,03,08,41,26.50
2010,05,03,08,42,29.80
2010,05,03,08,43,27.20
2010,05,03,08,44,26.00
2010,05,03,08,45,30.20
2010,05,03,08,46,33.80
2010,05,03,08,47,22.10
2010,05,03,08,48,28.70
2010,05,03,08,49,26.60
2010,05,03,08,50,21.90
2010,05,03,08,51,29.00
2010,05,03,08,52,28.90
2010,05,03,08,53,33.00
2010,05,03,08,54,33.00
2010,05,03,08,55,25.90
2010,05,03,08,56,33.10
2010,05,03,08,57,18.70
2010,05,03,08,58,25.40
2010,05,03,08,59,34.40
2010,05,03,09,00,31.70
2010,05,03,09,01,28.40
2010,05,03,09,02,19.30
2010,05,03,09,03,18.20
2010,05,03,09,04,22.60
2010,05,03,09,05,29.10
2010,05,03,09,06,31.50
2010,05,03,09,07,22.60
2010,05,03,09,08,16.50
2010,05,03,09,09,27.70
2010,05,03,09,10,27.90
2010,05,03,09,11,23.10
2010,05,03,09,12,21.80
2010,05,03,09,13,19.10
2010,05,03,09,14,30.00
2010,05,03,09,15,26.30
2010,05,03,09,16,23.70
2010,05,03,09,17,23.90
2010,05,03,09,18,28.40
2010,05,03,09,19,25.80
2010,05,03,09,20,21.50
2010,05,03,09,21,21.40
2010,05,03,09,22,15.00
2010,05,03,09,23,26.90
2010,05,03,09,24,24.80
2010,05,03,09,25,20.10
2010,05,03,09,26,21.20
2010,05,03,09,27,29.30
2010,05,03,09,28,24.10
2010,05,03,09,29,30.70
2010,05,03,09,30,18.20
2010,05,03,09,31,21.50
2010,05,03,09,32,26.90
2010,05,03,09,33,22.90
2010,05,03,09,34,31.40
2010,05,03,09,35,23.20
2010,05,03,09,36,22.10
2010,05,03,09,37,24.70
2010,05,03,09,38,32.60
2010,05,03,09,39,25.70
2010,05,03,09,40,21.30
2010,05,03,09,41,28.20
2010,05,03,09,42,33.40
2010,05,03,09,43,28.10
2010,05,03,09,44,25.40
2010,05,03,09,45,29.90
2010,05,03,09,46,30.20
2010,05,03,09,47,34.00
2010,05,03,09,48,39.90
2010,05,03,09,49,25.50
2010,05,03,09,50,28.00
2010,05,03,09,51,21.70
2010,05,03,09,52,26.00
2010,05,03,09,53,23.30
2010,05,03,09,54,14.60
2010,05,03,09,55,22.40
2010,05,03,09,56,24.40
2010,05,03,09,57,28.90
2010,05,03,09,58,27.40
2010,05,03,09,59,33.90
2010,05,03,10,00,26.40
2010,05,03,10,01,22.20
2010,05,03,10,02,31.80
2010,05,03,10,03,21.10
2010,05,03,10,04,20.50
2010,05,03,10,05,24.50
2010,05,03,10,06,37.30
2010,05,03,10,07,29.00
2010,05,03,10,08,34.10
2010,05,03,10,09,28.90
2010,05,03,10,10,32.60
2010,05,03,10,11,23.80
2010,05,03,10,12,33.80
2010,05,03,10,13,23.00
2010,05,03,10,14,18.50
2010,05,03,10,15,19.70
2010,05,03,10,16,19.50
2010,05,03,10,17,25.70
2010,05,03,10,18,31.40
2010,05,03,10,19,43.10
2010,05,03,10,20,27.10
2010,05,03,10,21,35.40
2010,05,03,10,22,29.20
2010,05,03,10,23,28.10
2010,05,03,10,24,20.40
2010,05,03,10,25,28.00
2010,05,03,10,26,31.20
2010,05,03,10,27,20.00
2010,05,03,10,28,22.60
2010,05,03,10,29,18.30
2010,05,03,10,30,27.30
2010,05,03,10,31,38.50
2010,05,03,10,32,32.90
2010,05,03,10,33,31.10
2010,05,03,10,34,30.00
2010,05,03,10,35,23.00
2010,05,03,10,36,21.30
2010,05,03,10,37,30.80
2010,05,03,10,38,36.80
2010,05,03,10,39,31.70
2010,05,03,10,40,29.90
2010,05,03,10,41,24.50
2010,05,03,10,42,26.00
2010,05,03,10,43,28.50
2010,05,03,10,44,37.70
2010,05,03,10,45,31.20
2010,05,03,10,46,34.60
2010,05,03,10,47,34.80
2010,05,03,10,48,33.80
2010,05,03,10,49,40.20
2010,05,03,10,50,29.60
2010,05,03,10,51,29.80
2010,05,03,10,52,31.30
2010,05,03,10,53,22.10
2010,05,03,10,54,38.00
2010,05,03,10,55,29.40
2010,05,03,10,56,27.40
2010,05,03,10,57,37.00
2010,05,03,10,58,33.40
2010,05,03,10,59,32.00
2010,05,03,11,00,30.00
2010,05,03,11,01,25.80
2010,05,03,11,02,30.60
2010,05,03,11,03,26.50
2010,05,03,11,04,33.60
2010,05,03,11,05,29.10
2010,05,03,11,06,32.10
2010,05,03,11,07,30.10
2010,05,03,11,08,29.70
2010,05,03,11,09,27.90
2010,05,03,11,10,32.00
2010,05,03,11,11,32.90
2010,05,03,11,12,25.20
2010,05,03,11,13,17.10
2010,05,03,11,14,24.60
2010,05,03,11,15,34.70
2010,05,03,11,16,24.10
2010,05,03,11,17,28.00
2010,05,03,11,18,34.80
2010,05,03,11,19,34.10
2010,05,03,11,20,32.20
2010,05,03,11,21,28.70
2010,05,03,11,22,32.60
2010,05,03,11,23,28.30
2010,05,03,11,24,24.90
2010,05,03,11,25,19.40
2010,05,03,11,26,30.30
2010,05,03,11,27,41.50
2010,05,03,11,28,25.70
2010,05,03,11,29,32.90
2010,05,03,11,30,21.00
2010,05,03,11,31,20.80
2010,05,03,11,32,30.00
2010,05,03,11,33,23.90
2010,05,03,11,34,23.50
2010,05,03,11,35,26.10
2010,05,03,11,36,30.10
2010,05,03,11,37,27.00
2010,05,03,11,38,16.00
2010,05,03,11,39,22.90
2010,05,03,11,40,26.30
2010,05,03,11,41,22.50
2010,05,03,11,42,23.10
2010,05,03,11,43,34.30
2010,05,03,11,44,33.60
2010,05,03,11,45,23.10
2010,05,03,11,46,22.00
2010,05,03,11,47,27.00
2010,05,03,11,48,26.50
2010,05,03,11,49,29.90
2010,05,03,11,50,27.40
2010,05,03,11,51,21.90
2010,05,03,11,52,15.80
2010,05,03,11,53,21.80
2010,05,03,11,54,31.60
2010,05,03,11,55,30.60
2010,05,03,11,56,30.00
2010,05,03,11,57,36.00
2010,05,03,11,58,27.30
2010,05,03,11,59,22.80
2010,05,03,12,00,23.10
2010,05,03,12,01,28.30
2010,05,03,12,02,23.90
2010,05,03,12,03,26.80
2010,05,03,12,04,20.80
2010,05,03,12,05,17.70
2010,05,03,12,06,19.10
2010,05,03,12,07,26.70
2010,05,03,12,08,21.70
2010,05,03,12,09,23.80
2010,05,03,12,10,15.90
2010,05,03,12,11,31.20
2010,05,03,12,12,26.50
2010,05,03,12,13,27.40
2010,05,03,12,14,23.70
2010,05,03,12,15,23.50
2010,05,03,12,16,27.80
2010,05,03,12,17,31.90
2010,05,03,12,18,35.00
2010,05,03,12,19,27.00
2010,05,03,12,20,29.60
2010,05,03,12,21,29.20
2010,05,03,12,22,31.30
2010,05,03,12,23,29.00
2010,05,03,12,24,27.90
2010,05,03,12,25,30.70
2010,05,03,12,26,24.60
2010,05,03,12,27,30.30
2010,05,03,12,28,28.70
2010,05,03,12,29,32.60
2010,05,03,12,30,24.80
2010,05,03,12,31,22.70
2010,05,03,12,32,30.90
2010,05,03,12,33,23.70
2010,05,03,12,34,18.60
2010,05,03,12,35,18.40
2010,05,03,12,36,16.10
2010,05,03,12,37,29.10
2010,05,03,12,38,20.20
2010,05,03,12,39,19.70
2010,05,03,12,40,19.70
2010,05,03,12,41,30.30
2010,05,03,12,42,23.80
2010,05,03,12,43,31.40
2010,05,03,12,44,27.40
2010,05,03,12,45,23.50
2010,05,03,12,46,18.70
2010,05,03,12,47,24.00
2010,05,03,12,48,15.80
2010,05,03,12,49,17.40
2010,05,03,12,50,28.30
2010,05,03,12,51,25.20
2010,05,03,12,52,16.70
2010,05,03,12,53,21.90
2010,05,03,12,54,19.40
2010,05,03,12,55,16.40
2010,05,03,12,56,12.80
2010,05,03,12,57,23.20
2010,05,03,12,58,21.90
2010,05,03,12,59,22.40
2010,05,03,13,00,23.70
2010,05,03,13,01,23.70
2010,05,03,13,02,16.20
2010,05,03,13,03,18.90
2010,05,03,13,04,21.20
2010,05,03,13,05,18.10
2010,05,03,13,06,10.80
2010,05,03,13,07,9.10
2010,05,03,13,08,19.20
2010,05,03,13,09,24.30
2010,05,03,13,10,22.40
2010,05,03,13,11,19.00
2010,05,03,13,12,23.70
2010,05,03,13,13,22.10
2010,05,03,13,14,28.90
2010,05,03,13,15,32.40
2010,05,03,13,16,19.00
2010,05,03,13,17,27.10
2010,05,03,13,18,29.90
2010,05,03,13,19,22.70
2010,05,03,13,20,20.30
2010,05,03,13,21,18.90
2010,05,03,13,22,27.10
2010,05,03,13,23,29.70
2010,05,03,13,24,23.00
2010,05,03,13,25,24.60
2010,05,03,13,26,20.60
2010,05,03,13,27,17.00
2010,05,03,13,28,19.60
2010,05,03,13,29,26.00
2010,05,03,13,30,18.80
2010,05,03,13,31,18.70
2010,05,03,13,32,18.70
2010,05,03,13,33,20.20
2010,05,03,13,34,21.60
2010,05,03,13,35,19.10
2010,05,03,13,36,23.70
2010,05,03,13,37,21.30
2010,05,03,13,38,26.20
2010,05,03,13,39,29.60
2010,05,03,13,40,23.90
2010,05,03,13,41,23.30
2010,05,03,13,42,30.10
2010,05,03,13,43,21.40
2010,05,03,13,44,26.50
2010,05,03,13,45,24.10
2010,05,03,13,46,23.60
2010,05,03,13,47,23.80
2010,05,03,13,48,22.70
2010,05,03,13,49,24.40
2010,05,03,13,50,23.30
2010,05,03,13,51,27.10
2010,05,03,13,52,31.60
2010,05,03,13,53,23.60
2010,05,03,13,54,26.80
2010,05,03,13,55,20.80
2010,05,03,13,56,27.40
2010,05,03,13,57,25.80
2010,05,03,13,58,20.10
2010,05,03,13,59,17.20
2010,05,03,14,00,18.80
2010,05,03,14,01,28.10
2010,05,03,14,02,25.90
2010,05,03,14,03,25.90
2010,05,03,14,04,25.10
2010,05,03,14,05,20.00
2010,05,03,14,06,21.80
2010,05,03,14,07,34.60
2010,05,03,14,08,24.60
2010,05,03,14,09,23.30
2010,05,03,14,10,20.20
2010,05,03,14,11,19.20
2010,05,03,14,12,25.20
2010,05,03,14,13,24.70
2010,05,03,14,14,36.10
2010,05,03,14,15,25.30
2010,05,03,14,16,28.10
2010,05,03,14,17,32.00
2010,05,03,14,18,32.20
2010,05,03,14,19,26.20
2010,05,03,14,20,25.20
2010,05,03,14,21,22.70
2010,05,03,14,22,23.30
2010,05,03,14,23,26.60
2010,05,03,14,24,27.00
2010,05,03,14,25,26.00
2010,05,03,14,26,31.80
2010,05,03,14,27,33.00
2010,05,03,14,28,35.60
2010,05,03,14,29,28.60
2010,05,03,14,30,32.70
2010,05,03,14,31,28.50
2010,05,03,14,32,26.90
2010,05,03,14,33,25.80
2010,05,03,14,34,29.50
2010,05,03,14,35,30.10
2010,05,03,14,36,30.20
2010,05,03,14,37,21.80
2010,05,03,14,38,24.80
2010,05,03,14,39,30.90
2010,05,03,14,40,25.50
2010,05,03,14,41,37.50
2010,05,03,14,42,28.30
2010,05,03,14,43,28.00
2010,05,03,14,44,25.60
2010,05,03,14,45,16.90
2010,05,03,14,46,19.80
2010,05,03,14,47,17.40
2010,05,03,14,48,26.70
2010,05,03,14,49,30.10
2010,05,03,14,50,21.60
2010,05,03,14,51,22.70
2010,05,03,14,52,30.40
2010,05,03,14,53,28.60
2010,05,03,14,54,28.50
2010,05,03,14,55,22.30
2010,05,03,14,56,25.90
2010,05,03,14,57,24.00
2010,05,03,14,58,35.40
2010,05,03,14,59,30.20
2010,05,03,15,00,35.60
2010,05,03,15,01,31.90
2010,05,03,15,02,29.90
2010,05,03,15,03,33.00
2010,05,03,15,04,25.60
2010,05,03,15,05,20.60
2010,05,03,15,06,28.00
2010,05,03,15,07,19.70
2010,05,03,15,08,19.70
2010,05,03,15,09,25.60
2010,05,03,15,10,31.10
2010,05,03,15,11,22.40
2010,05,03,15,12,21.20
2010,05,03,15,13,24.10
2010,05,03,15,14,32.90
2010,05,03,15,15,27.60
2010,05,03,15,16,31.30
2010,05,03,15,17,30.70
2010,05,03,15,18,19.80
2010,05,03,15,19,24.10
2010,05,03,15,20,23.00
2010,05,03,15,21,26.30
2010,05,03,15,22,24.70
2010,05,03,15,23,26.10
2010,05,03,15,24,26.80
2010,05,03,15,25,23.10
2010,05,03,15,26,28.70
2010,05,03,15,27,25.00
2010,05,03,15,28,24.20
2010,05,03,15,29,18.60
2010,05,03,15,30,25.70
2010,05,03,15,31,29.40
2010,05,03,15,32,26.60
2010,05,03,15,33,29.90
2010,05,03,15,34,27.80
2010,05,03,15,35,24.10
2010,05,03,15,36,28.20
2010,05,03,15,37,28.00
2010,05,03,15,38,21.30
2010,05,03,15,39,32.10
2010,05,03,15,40,28.10
2010,05,03,15,41,29.10
2010,05,03,15,42,23.40
2010,05,03,15,43,31.90
2010,05,03,15,44,26.70
2010,05,03,15,45,29.70
2010,05,03,15,46,32.50
2010,05,03,15,47,25.60
2010,05,03,15,48,25.70
2010,05,03,15,49,25.80
2010,05,03,15,50,27.90
2010,05,03,15,51,28.90
2010,05,03,15,52,39.30
2010,05,03,15,53,26.70
2010,05,03,15,54,25.50
2010,05,03,15,55,28.40
2010,05,03,15,56,32.10
2010,05,03,15,57,33.50
2010,05,03,15,58,21.10
2010,05,03,15,59,28.30
2010,05,03,16,00,22.00
2010,05,03,16,01,47.70
2010,05,03,16,02,37.90
2010,05,03,16,03,39.90
2010,05,03,16,04,45.10
2010,05,03,16,05,39.30
2010,05,03,16,06,22.00
2010,05,03,16,07,23.60
2010,05,03,16,08,39.10
2010,05,03,16,09,35.00
2010,05,03,16,10,27.40
2010,05,03,16,11,23.00
2010,05,03,16,12,33.60
2010,05,03,16,13,35.60
2010,05,03,16,14,37.40
2010,05,03,16,15,33.70
2010,05,03,16,16,21.00
2010,05,03,16,17,26.90
2010,05,03,16,18,26.60
2010,05,03,16,19,20.40
2010,05,03,16,20,25.80
2010,05,03,16,21,23.80
2010,05,03,16,22,22.30
2010,05,03,16,23,20.40
2010,05,03,16,24,17.60
2010,05,03,16,25,24.30
2010,05,03,16,26,25.80
2010,05,03,16,27,27.00
2010,05,03,16,28,24.30
2010,05,03,16,29,29.80
2010,05,03,16,30,27.00
2010,05,03,16,31,26.30
2010,05,03,16,32,25.50
2010,05,03,16,33,28.20
2010,05,03,16,34,26.10
2010,05,03,16,35,23.00
2010,05,03,16,36,24.10
2010,05,03,16,37,30.80
2010,05,03,16,38,36.50
2010,05,03,16,39,29.60
2010,05,03,16,40,19.80
2010,05,03,16,41,25.70
2010,05,03,16,42,34.30
2010,05,03,16,43,37.30
2010,05,03,16,44,27.60
2010,05,03,16,45,30.80
2010,05,03,16,46,31.20
2010,05,03,16,47,21.90
2010,05,03,16,48,23.50
2010,05,03,16,49,23.20
2010,05,03,16,50,20.70
2010,05,03,16,51,33.40
2010,05,03,16,52,21.70
2010,05,03,16,53,23.40
2010,05,03,16,54,24.70
2010,05,03,16,55,29.80
2010,05,03,16,56,24.50
2010,05,03,16,57,21.20
2010,05,03,16,58,22.00
2010,05,03,16,59,23.10
2010,05,03,17,00,29.10
2010,05,03,17,01,25.00
2010,05,03,17,02,13.50
2010,05,03,17,03,23.50
2010,05,03,17,04,28.60
2010,05,03,17,05,34.30
2010,05,03,17,06,31.50
2010,05,03,17,07,27.40
2010,05,03,17,08,38.60
2010,05,03,17,09,30.30
2010,05,03,17,10,18.50
2010,05,03,17,11,20.60
2010,05,03,17,12,27.80
2010,05,03,17,13,22.90
2010,05,03,17,14,17.50
2010,05,03,17,15,24.60
2010,05,03,17,16,20.60
2010,05,03,17,17,27.60
2010,05,03,17,18,26.20
2010,05,03,17,19,22.50
2010,05,03,17,20,21.40